Location: Newark
(33.6439°N, 114.9881°W)
Time: 17:44:27
(UTC+00:00)

A-11 Canister half - Pass Details

Date: 24 August 2019
Orbit: 1527 x 1682 km, 47.3° (Epoch: 13 October)

Event Time Altitude Azimuth Distance (km) Brightness Sun altitude
Rises 21:56:12 0° 289° (WNW) 4,894 12.0 51.9°
Reaches altitude 10° 21:59:43 10° 298° (WNW) 3,921 11.6 51.3°
Maximum altitude 22:08:54 37° 3° (N) 2,399 10.3 49.6°
Drops below altitude 10° 22:18:07 10° 68° (ENE) 3,938 10.8 47.8°
Sets 22:21:40 0° 77° (ENE) 4,916 11.2 47.1°
